Flag for Hungary Weather past 2 weeks in Sopron, Hungary

Now
54 °F

Cool.


Feels Like: 51 °F
Forecast: 39 / 62 °F
Wind: 10 mph from Northwest

Location: Eisenstadt

Current Time: Sep 23, 2014 at 10:49:55 AM

Latest Report: Sep 23, 2014 at 10:00 AM


Visibility: N/A

Pressure: 30.01 "Hg

Humidity: 69%

Dew point: 44 °F

Location of SopronLocation

Historic Weather in Sopron — Graph

°F

Sopron temperature yesterday

Maximum temperature yesterday: 65 °F (at 1:00 AM)
Minimum temperature yesterday: 51 °F (at 9:00 PM)
Average temperature yesterday: 58 °F

Past Weeks' High & Low Weather Summary

 TemperatureHumidityPressure
High78 °F (Sep 9, 2:00 PM)99% (Sep 9, 9:00 AM)30.09 "Hg (Sep 9, 9:00 AM)
Low48 °F (Sep 23, 3:00 AM)49% (Sep 21, 2:00 PM)29.77 "Hg (Sep 12, 5:00 AM)
Average62 °F82%29.96 "Hg
* Reported Sep 8 9:00 AM — Sep 23 9:00 AM, Sopron, Weather by CustomWeather, © 2014

Note: Actual official high and low records may vary slightly from our data, if they occured in-between our weather recording intervals... More about our weather records

Advertising

Sopron weather history for previous 24 hours

 ConditionsComfort  
Time TempWeatherWind HumidityBarometerVisibility
9:00 AM
Sep 23
53 °FCool.9 mph72%29.98 "HgN/A
8:00 AM52 °FOvercast.8 mph74%29.96 "Hg6 mi
7:00 AM51 °FOvercast.7 mph74%29.94 "Hg6 mi
6:00 AM50 °FPassing clouds.5 mph76%29.93 "Hg6 mi
5:00 AM49 °FPassing clouds.6 mph76%29.93 "Hg6 mi
4:00 AM49 °FPassing clouds.5 mph78%29.93 "Hg6 mi
3:00 AM48 °FCool.3 mph79%29.95 "HgN/A
2:00 AM49 °FClear.5 mph79%29.95 "Hg6 mi
1:00 AM49 °FCool.5 mph80%29.95 "HgN/A
12:00 AM50 °FCool.5 mph78%29.95 "HgN/A
11:00 PM
Sep 22
51 °FOvercast.6 mph76%29.94 "Hg6 mi
10:00 PM51 °FCool.3 mph79%29.93 "HgN/A
9:00 PM51 °FCool.5 mph84%29.92 "HgN/A
8:00 PM51 °FOvercast.3 mph87%29.91 "Hg6 mi
7:00 PM51 °FOvercast.3 mph85%29.90 "Hg9 mi
6:00 PM56 °FCool.2 mph81%29.87 "HgN/A
5:00 PM58 °FPartly sunny.1 mph72%29.88 "Hg9 mi
4:00 PM58 °FCool.5 mph79%29.88 "HgN/A
3:00 PM61 °FCool.5 mph65%29.86 "HgN/A
2:00 PM54 °FRain. Overcast.7 mph83%29.88 "Hg12 mi
1:00 PM56 °FFog.7 mph74%29.89 "HgN/A
12:00 PM58 °FCool.5 mph72%29.88 "HgN/A
11:00 AM59 °FOvercast.5 mph67%29.88 "Hg12 mi
10:00 AM59 °FCool.6 mph69%29.88 "HgN/A
Weather by CustomWeather, © 2014

See weather overviewHow to use our weather pages